CW7443 Weather Reports


Display with metric or nautical units.
time (UTC)temp
F
wind
direction
speed
MPH
gust
MPH
rain 1hr
in
rain 24hr
in
rain mn
in
humidity
%
barometer
mb
20210225130401 26 12 0.0 1.0 0.00 0.11 0.00 91 1024.5
20210225125909 25 12 0.0 1.0 0.00 0.11 0.00 91 1024.5
20210225125401 25 12 0.0 0.0 0.00 0.11 0.00 91 1024.5
20210225124856 25 12 0.0 0.0 0.00 0.11 0.00 90 1024.4
20210225124356 25 12 0.0 0.0 0.00 0.11 0.00 90 1024.4
20210225123914 25 12 0.0 0.0 0.00 0.11 0.00 90 1024.4
20210225123357 25 12 0.0 0.0 0.00 0.11 0.00 90 1024.3
20210225122944 25 12 0.0 0.0 0.00 0.11 0.00 89 1024.3
20210225122425 25 12 0.0 0.0 0.00 0.11 0.00 90 1024.3
20210225121900 25 12 0.0 0.0 0.00 0.11 0.00 89 1024.1
20210225121350 25 12 0.0 0.0 0.00 0.11 0.00 89 1024.1
20210225120903 25 12 0.0 0.0 0.00 0.11 0.00 89 1024.1
20210225120400 25 12 0.0 0.0 0.00 0.11 0.00 89 1024.2
20210225115855 25 12 0.0 0.0 0.00 0.11 0.00 89 1024.2
20210225115407 25 12 0.0 0.0 0.00 0.11 0.00 89 1024.2
20210225114900 26 12 0.0 0.0 0.00 0.11 0.00 89 1024.3
20210225114356 26 12 0.0 0.0 0.00 0.11 0.00 88 1024.3
20210225113853 26 12 0.0 0.0 0.00 0.11 0.00 88 1024.3
20210225113401 26 12 0.0 0.0 0.00 0.11 0.00 88 1024.4
20210225113028 26 12 0.0 0.0 0.00 0.11 0.00 88 1024.4
20210225112441 26 12 0.0 0.0 0.00 0.11 0.00 88 1024.4
20210225111903 26 12 0.0 0.0 0.00 0.11 0.00 88 1024.1
20210225111401 26 12 0.0 0.0 0.00 0.11 0.00 88 1024.1
20210225110900 26 12 0.0 0.0 0.00 0.11 0.00 88 1024.1
20210225110406 27 12 0.0 0.0 0.00 0.11 0.00 87 1023.9
20210225105859 27 12 0.0 0.0 0.00 0.11 0.00 87 1023.9
20210225105407 27 12 0.0 0.0 0.00 0.11 0.00 86 1023.9
20210225104858 27 12 0.0 0.0 0.00 0.11 0.00 86 1023.7
20210225104356 27 12 0.0 0.0 0.00 0.11 0.00 86 1023.7
20210225103909 28 12 0.0 0.0 0.00 0.11 0.00 86 1023.7
20210225103405 28 12 0.0 0.0 0.00 0.11 0.00 86 1023.5
20210225103045 28 12 0.0 0.0 0.00 0.11 0.00 85 1023.5
20210225102456 28 12 0.0 0.0 0.00 0.11 0.00 85 1023.5
20210225101907 28 12 0.0 0.0 0.00 0.11 0.00 85 1023.4
20210225101409 28 12 0.0 0.0 0.00 0.11 0.00 84 1023.4
20210225100857 29 12 0.0 0.0 0.00 0.11 0.00 84 1023.4
20210225100406 29 12 0.0 0.0 0.00 0.11 0.00 83 1022.9
20210225095905 29 12 0.0 0.0 0.00 0.11 0.00 82 1022.9
20210225095439 29 12 0.0 0.0 0.00 0.11 0.00 82 1022.9
20210225094927 30 12 0.0 0.0 0.00 0.11 0.00 81 1022.8
20210225094404 30 12 0.0 0.0 0.00 0.11 0.00 81 1022.8
20210225093859 30 12 0.0 0.0 0.00 0.11 0.00 81 1022.8
20210225093355 30 12 0.0 0.0 0.00 0.11 0.00 81 1022.8
20210225092923 30 12 0.0 0.0 0.00 0.11 0.00 81 1022.8
20210225092410 31 12 0.0 0.0 0.00 0.11 0.00 81 1022.8
20210225091856 31 12 0.0 0.0 0.00 0.11 0.00 80 1022.5
20210225091352 31 12 0.0 0.0 0.00 0.11 0.00 80 1022.5
20210225090905 31 12 0.0 0.0 0.00 0.11 0.00 80 1022.5
20210225090357 32 12 0.0 0.0 0.00 0.11 0.00 80 1022.3
20210225085855 32 11 0.0 0.0 0.00 0.11 0.00 80 1022.3
20210225085406 32 11 0.0 0.0 0.00 0.11 0.00 79 1022.3
20210225084900 32 11 0.0 0.0 0.00 0.11 0.00 79 1022.3
20210225084404 32 11 0.0 0.0 0.00 0.11 0.00 79 1022.3
20210225083852 33 11 0.0 1.0 0.00 0.11 0.00 79 1022.3
20210225083401 33 11 0.0 1.0 0.00 0.11 0.00 79 1022.1
20210225083025 33 11 0.0 2.0 0.00 0.11 0.00 79 1022.1
20210225082433 33 10 0.0 2.0 0.00 0.11 0.00 79 1022.1
20210225081912 33 9 0.0 2.0 0.00 0.11 0.00 79 1021.9
20210225081412 33 28 0.0 2.0 0.00 0.11 0.00 79 1021.9
20210225080902 33 36 0.0 1.0 0.00 0.11 0.00 79 1021.9
20210225080435 33 36 0.0 0.0 0.00 0.11 0.00 79 1021.8
20210225075910 34 36 0.0 2.0 0.00 0.11 0.00 79 1021.8
20210225075403 34 35 0.0 2.0 0.00 0.11 0.00 79 1021.8
20210225074852 34 22 0.0 2.0 0.00 0.11 0.00 79 1021.8
20210225074411 34 22 0.0 2.0 0.00 0.11 0.00 79 1021.8
20210225073900 34 21 0.0 2.0 0.00 0.11 0.00 80 1021.8
20210225073408 34 10 0.0 3.0 0.00 0.11 0.00 80 1021.8
20210225072940 34 360 0.0 3.0 0.00 0.11 0.00 80 1021.8
20210225072404 34 91 0.0 0.0 0.00 0.11 0.00 80 1021.8
20210225071854 34 91 0.0 3.0 0.00 0.11 0.00 80 1021.7
20210225071355 34 92 0.0 3.0 0.00 0.11 0.00 80 1021.7
20210225070907 34 47 0.0 2.0 0.00 0.11 0.00 80 1021.7
20210225070355 34 328 0.0 1.0 0.00 0.11 0.00 80 1021.5
20210225065902 34 328 0.0 5.0 0.00 0.11 0.00 80 1021.5
20210225065405 34 325 0.0 5.0 0.00 0.11 0.00 80 1021.5
20210225064903 34 26 0.0 2.0 0.00 0.11 0.00 80 1021.2
20210225064400 34 63 0.0 2.0 0.00 0.11 0.00 80 1021.2
20210225063919 34 63 0.0 5.0 0.00 0.11 0.00 80 1021.2
20210225063401 34 74 1.0 5.0 0.00 0.11 0.00 80 1021.0
20210225063045 35 54 0.0 1.0 0.00 0.11 0.00 80 1021.0
20210225062453 35 54 0.0 2.0 0.00 0.11 0.00 80 1021.0
20210225061905 35 42 0.0 3.0 0.00 0.11 0.00 80 1020.8
20210225061403 35 42 0.0 3.0 0.00 0.11 0.00 80 1020.8
20210225060855 35 355 0.0 3.0 0.00 0.11 0.00 80 1020.8
20210225060409 35 355 0.0 3.0 0.00 0.11 0.00 79 1020.7
20210225055906 35 73 0.0 4.0 0.00 0.11 0.00 79 1020.7
20210225055412 35 34 1.0 4.0 0.00 0.11 0.00 79 1020.7
20210225055032 35 44 0.0 2.0 0.00 0.11 0.00 79 1020.5
20210225054422 35 43 0.0 2.0 0.00 0.11 0.00 79 1020.5
20210225053904 36 43 0.0 2.0 0.00 0.11 0.00 79 1020.5
20210225053356 36 45 0.0 2.0 0.00 0.11 0.00 79 1020.4
20210225052908 36 46 0.0 4.0 0.00 0.11 0.00 79 1020.4
20210225052450 36 46 0.0 4.0 0.00 0.11 0.00 78 1020.4
20210225051857 36 40 0.0 4.0 0.00 0.11 0.00 78 1020.2
20210225051359 36 44 0.0 4.0 0.00 0.11 0.00 78 1020.2
20210225050908 36 38 0.0 3.0 0.00 0.11 0.00 78 1020.2
20210225050356 36 19 1.0 3.0 0.00 0.11 0.11 77 1020.1
20210225045857 36 90 0.0 1.0 0.00 0.11 0.11 77 1020.1
20210225045349 36 90 0.0 6.0 0.00 0.11 0.11 77 1020.1
20210225044903 36 90 0.0 6.0 0.00 0.11 0.11 77 1019.7
20210225044401 36 36 0.0 6.0 0.00 0.11 0.11 77 1019.7
20210225043854 36 85 0.0 5.0 0.00 0.11 0.11 76 1019.7
20210225043413 36 163 0.0 3.0 0.00 0.11 0.11 76 1019.6
20210225042939 36 336 0.0 3.0 0.00 0.11 0.11 76 1019.6
20210225042427 36 45 0.0 7.0 0.00 0.11 0.11 76 1019.6
20210225041941 36 39 2.0 7.0 0.00 0.11 0.11 76 1019.4
20210225041401 36 15 1.0 7.0 0.00 0.11 0.11 76 1019.4
20210225040902 36 275 1.0 5.0 0.00 0.11 0.11 77 1019.4
20210225040358 37 273 1.0 5.0 0.00 0.11 0.11 77 1019.1
20210225035906 37 346 0.0 4.0 0.00 0.11 0.11 77 1019.1
20210225035357 37 355 1.0 4.0 0.00 0.11 0.11 76 1019.1
20210225034851 37 76 0.0 3.0 0.00 0.11 0.11 76 1018.9
20210225034406 37 57 0.0 5.0 0.00 0.11 0.11 75 1018.9
20210225033900 37 330 0.0 6.0 0.00 0.11 0.11 75 1018.9
20210225033420 37 41 2.0 6.0 0.00 0.11 0.11 75 1018.6
20210225033203 37 186 1.0 4.0 0.00 0.11 0.11 76 1018.6
20210225032520 37 106 0.0 10.0 0.00 0.11 0.11 76 1018.6
20210225031858 37 5 1.0 10.0 0.00 0.11 0.11 76 1018.5
20210225031400 37 55 1.0 6.0 0.00 0.11 0.11 77 1018.5
20210225030908 37 117 1.0 8.0 0.00 0.11 0.11 77 1018.5
20210225030400 37 55 1.0 8.0 0.00 0.11 0.11 78 1018.1
20210225025855 37 279 1.0 5.0 0.00 0.11 0.11 78 1018.1
20210225025407 38 344 1.0 5.0 0.00 0.11 0.11 78 1018.1
20210225024900 38 201 0.0 5.0 0.00 0.11 0.11 78 1017.6
20210225024358 38 80 1.0 5.0 0.00 0.11 0.11 78 1017.6
20210225023849 38 263 1.0 5.0 0.00 0.11 0.11 78 1017.6
20210225023401 38 183 1.0 6.0 0.00 0.11 0.11 78 1017.4
20210225022955 38 15 0.0 6.0 0.00 0.11 0.11 77 1017.4
20210225022452 38 251 1.0 5.0 0.00 0.11 0.11 78 1017.4
20210225021912 38 247 0.0 5.0 0.00 0.11 0.11 78 1016.9
20210225021404 39 57 0.0 8.0 0.00 0.11 0.11 78 1016.9
20210225020856 39 58 1.0 8.0 0.00 0.11 0.11 77 1016.9
20210225020409 39 162 0.0 3.0 0.00 0.11 0.11 76 1016.4
20210225015857 39 162 0.0 9.0 0.00 0.11 0.11 76 1016.4
20210225015352 39 267 1.0 9.0 0.00 0.11 0.11 76 1016.4
20210225014904 40 360 1.0 8.0 0.00 0.11 0.11 75 1016.0
20210225014359 40 244 2.0 8.0 0.00 0.11 0.11 75 1016.0
20210225013909 40 259 0.0 15.0 0.00 0.11 0.11 75 1016.0
20210225013413 41 146 1.0 15.0 0.00 0.11 0.11 74 1015.8
20210225013128 41 45 1.0 12.0 0.00 0.11 0.11 74 1015.8
20210225012438 41 51 0.0 12.0 0.00 0.11 0.11 74 1015.8
20210225011851 41 86 1.0 8.0 0.00 0.11 0.11 73 1015.4
20210225011407 42 239 3.0 8.0 0.00 0.11 0.11 72 1015.4
20210225010900 42 300 1.0 7.0 0.00 0.11 0.11 72 1015.4
20210225010351 42 247 0.0 7.0 0.00 0.11 0.11 71 1015.2
20210225005909 42 230 1.0 7.0 0.00 0.11 0.11 70 1015.2
20210225005400 42 237 2.0 6.0 0.00 0.11 0.11 70 1015.2
20210225004856 43 128 0.0 6.0 0.00 0.11 0.11 70 1014.8
20210225004351 43 190 1.0 5.0 0.00 0.11 0.11 69 1014.8
20210225003919 43 267 0.0 4.0 0.00 0.11 0.11 69 1014.8
20210225003356 43 327 0.0 4.0 0.00 0.11 0.11 69 1014.3
20210225003119 43 248 0.0 7.0 0.00 0.11 0.11 69 1014.3
20210225002521 43 248 2.0 7.0 0.00 0.11 0.11 68 1014.3
20210225001859 43 245 0.0 6.0 0.00 0.11 0.11 71 1014.1
20210225001356 43 141 0.0 6.0 0.00 0.11 0.11 71 1014.1
20210225000907 43 146 0.0 3.0 0.00 0.11 0.11 72 1014.1
20210225000407 43 219 0.0 2.0 0.00 0.11 0.11 72 1013.7
20210224235903 43 258 0.0 5.0 0.00 0.11 0.11 73 1013.7
20210224235444 44 257 0.0 5.0 0.00 0.11 0.11 73 1013.7
20210224235137 44 275 0.0 3.0 0.00 0.11 0.11 73 1013.2
20210224234359 44 275 0.0 3.0 0.00 0.11 0.11 74 1013.2
20210224233849 44 249 1.0 3.0 0.00 0.11 0.11 76 1013.2
20210224233403 44 168 0.0 3.0 0.00 0.11 0.11 78 1012.7
20210224232953 44 165 0.0 4.0 0.00 0.11 0.11 77 1012.7
20210224232422 44 156 0.0 4.0 0.00 0.11 0.11 78 1012.7
20210224231905 44 234 1.0 4.0 0.00 0.11 0.11 79 1012.6
20210224231411 44 259 0.0 4.0 0.02 0.11 0.11 81 1012.6
20210224230857 44 211 1.0 5.0 0.07 0.11 0.11 82 1012.6
20210224230347 44 19 0.0 5.0 0.08 0.11 0.11 81 1012.1
20210224225914 44 250 0.0 8.0 0.08 0.11 0.11 83 1012.1
20210224225358 44 242 1.0 8.0 0.08 0.11 0.11 83 1012.1
20210224224851 44 200 0.0 5.0 0.09 0.11 0.11 84 1011.8
20210224224408 45 248 1.0 5.0 0.09 0.11 0.11 83 1011.8
20210224223859 45 284 0.0 4.0 0.09 0.11 0.11 83 1011.8
20210224223352 45 241 1.0 10.0 0.09 0.11 0.11 84 1012.0
20210224222954 45 258 3.0 10.0 0.09 0.11 0.11 84 1012.0
20210224222451 45 225 1.0 19.0 0.09 0.11 0.11 84 1012.0
20210224221907 46 265 1.0 19.0 0.09 0.11 0.11 84 1011.6
20210224221356 46 242 3.0 14.0 0.07 0.09 0.09 83 1011.6
20210224220908 46 254 4.0 14.0 0.02 0.04 0.04 80 1011.6
20210224220402 46 250 1.0 6.0 0.01 0.03 0.03 78 1011.0
20210224215857 46 262 1.0 5.0 0.01 0.03 0.03 78 1011.0
20210224215443 46 227 1.0 5.0 0.00 0.02 0.02 79 1011.0
20210224215109 45 221 0.0 4.0 0.00 0.02 0.02 82 1010.5
20210224214400 45 285 0.0 3.0 0.00 0.02 0.02 82 1010.5
20210224213855 45 227 0.0 3.0 0.00 0.02 0.02 82 1010.5
20210224213410 46 140 0.0 1.0 0.00 0.02 0.02 81 1010.5
20210224212926 46 140 0.0 1.0 0.01 0.02 0.02 81 1010.5
20210224212417 46 173 0.0 3.0 0.02 0.02 0.02 81 1010.5
20210224211848 47 173 0.0 4.0 0.02 0.02 0.02 81 1010.5
20210224211404 47 164 0.0 4.0 0.02 0.02 0.02 81 1010.5
20210224210857 47 213 0.0 3.0 0.02 0.02 0.02 79 1010.5
20210224210355 47 213 0.0 3.0 0.02 0.02 0.02 78 1009.9
20210224205905 48 213 0.0 8.0 0.02 0.02 0.02 77 1009.9
20210224205401 48 213 1.0 8.0 0.02 0.02 0.02 77 1009.9
20210224204927 49 252 0.0 4.0 0.02 0.02 0.02 76 1009.4
20210224204356 49 218 0.0 4.0 0.02 0.02 0.02 75 1009.4
20210224203912 50 286 0.0 9.0 0.02 0.02 0.02 72 1009.4
20210224203359 51 334 2.0 9.0 0.02 0.02 0.02 69 1009.4
20210224202925 52 111 1.0 7.0 0.01 0.01 0.01 57 1009.4
20210224202416 52 178 1.0 5.0 0.00 0.00 0.00 53 1009.4
20210224201859 52 26 0.0 1.0 0.00 0.00 0.00 51 1008.8
20210224201350 53 30 0.0 2.0 0.00 0.00 0.00 50 1008.8
20210224200902 53 28 0.0 6.0 0.00 0.00 0.00 50 1008.8
20210224200358 53 191 1.0 6.0 0.00 0.00 0.00 49 1008.7
20210224195855 54 180 0.0 6.0 0.00 0.00 0.00 48 1008.7
20210224195410 54 193 0.0 3.0 0.00 0.00 0.00 48 1008.7
20210224195054 54 164 0.0 4.0 0.00 0.00 0.00 48 1008.4
20210224194355 54 279 1.0 7.0 0.00 0.00 0.00 47 1008.4
20210224193847 54 276 2.0 7.0 0.00 0.00 0.00 47 1008.4
20210224193407 54 133 1.0 7.0 0.00 0.00 0.00 47 1008.3
20210224192925 54 203 1.0 7.0 0.00 0.00 0.00 47 1008.3
20210224192403 54 144 1.0 7.0 0.00 0.00 0.00 47 1008.3
20210224191906 54 217 1.0 7.0 0.00 0.00 0.00 47 1008.4
20210224191402 54 241 2.0 5.0 0.00 0.00 0.00 47 1008.4
20210224190855 54 182 1.0 8.0 0.00 0.00 0.00 46 1008.4
20210224190406 54 217 1.0 8.0 0.00 0.00 0.00 46 1008.4
20210224185903 54 252 2.0 8.0 0.00 0.00 0.00 45 1008.4
20210224185433 54 160 2.0 10.0 0.00 0.00 0.00 45 1008.4
20210224185100 55 148 2.0 10.0 0.00 0.00 0.00 44 1008.3
20210224184353 55 180 3.0 7.0 0.00 0.00 0.00 44 1008.3
20210224183910 54 228 1.0 7.0 0.00 0.00 0.00 45 1008.3
20210224183358 54 66 1.0 7.0 0.00 0.00 0.00 45 1008.4
20210224182905 54 231 1.0 8.0 0.00 0.00 0.00 44 1008.4
20210224182421 54 229 3.0 8.0 0.00 0.00 0.00 44 1008.4
20210224181855 54 173 2.0 7.0 0.00 0.00 0.00 43 1008.8
20210224181353 54 289 1.0 7.0 0.00 0.00 0.00 43 1008.8
20210224180906 55 192 2.0 10.0 0.00 0.00 0.00 43 1008.8
20210224180357 55 160 2.0 10.0 0.00 0.00 0.00 43 1008.9
20210224175857 55 191 2.0 9.0 0.00 0.00 0.00 42 1008.9
20210224175406 55 124 1.0 9.0 0.00 0.00 0.00 42 1008.9
20210224174921 56 267 2.0 10.0 0.00 0.00 0.00 41 1009.4
20210224174355 56 252 2.0 10.0 0.00 0.00 0.00 40 1009.4
20210224173851 56 244 5.0 10.0 0.00 0.00 0.00 40 1009.4
20210224173407 56 227 4.0 9.0 0.00 0.00 0.00 40 1008.9
20210224172901 56 235 2.0 9.0 0.00 0.00 0.00 40 1008.9
20210224172355 56 183 2.0 9.0 0.00 0.00 0.00 40 1008.9
20210224171907 55 232 2.0 11.0 0.00 0.00 0.00 40 1008.9
20210224171402 55 273 4.0 12.0 0.00 0.00 0.00 40 1008.9
20210224170855 55 267 3.0 14.0 0.00 0.00 0.00 41 1008.9
20210224170406 55 216 5.0 14.0 0.00 0.00 0.00 40 1009.2
20210224165853 55 191 1.0 11.0 0.00 0.00 0.00 40 1009.2
20210224165406 55 229 5.0 13.0 0.00 0.00 0.00 39 1009.2
20210224164917 55 193 5.0 13.0 0.00 0.00 0.00 39 1009.3
20210224164359 55 242 5.0 14.0 0.00 0.00 0.00 39 1009.3
20210224163851 55 234 5.0 14.0 0.00 0.00 0.00 39 1009.3
20210224163401 55 124 2.0 14.0 0.00 0.00 0.00 40 1009.6
20210224162849 54 163 6.0 14.0 0.00 0.00 0.00 40 1009.6
20210224162409 54 240 5.0 14.0 0.00 0.00 0.00 40 1009.6
20210224161854 54 142 5.0 14.0 0.00 0.00 0.00 40 1009.9
20210224161356 54 157 6.0 13.0 0.00 0.00 0.00 40 1009.9
20210224160912 54 47 2.0 12.0 0.00 0.00 0.00 40 1009.9
20210224160407 54 166 6.0 12.0 0.00 0.00 0.00 36 1010.0
20210224155903 53 202 5.0 13.0 0.00 0.00 0.00 41 1010.0
20210224155355 53 269 1.0 13.0 0.00 0.00 0.00 42 1010.0
20210224154935 52 194 3.0 12.0 0.00 0.00 0.00 43 1010.0
20210224154357 52 267 4.0 11.0 0.00 0.00 0.00 43 1010.0
20210224153851 52 238 3.0 11.0 0.00 0.00 0.00 43 1010.0
20210224153402 52 209 3.0 10.0 0.00 0.00 0.00 43 1010.5
20210224152906 52 211 2.0 10.0 0.00 0.00 0.00 44 1010.5
20210224152359 51 188 3.0 11.0 0.00 0.00 0.00 44 1010.5
20210224151847 51 261 3.0 11.0 0.00 0.00 0.00 44 1010.5
20210224151404 51 317 3.0 11.0 0.00 0.00 0.00 45 1010.5
20210224150901 50 221 2.0 10.0 0.00 0.00 0.00 46 1010.5
20210224150351 49 165 3.0 8.0 0.00 0.00 0.00 48 1010.6
20210224145850 49 219 3.0 7.0 0.00 0.00 0.00 50 1010.6
20210224145403 48 168 2.0 7.0 0.00 0.00 0.00 52 1010.6
20210224145025 47 143 2.0 7.0 0.00 0.00 0.00 54 1010.9
20210224144350 46 133 1.0 7.0 0.00 0.00 0.00 55 1010.9
20210224143909 46 157 2.0 6.0 0.00 0.00 0.00 56 1010.9
20210224143354 45 176 1.0 6.0 0.00 0.00 0.00 56 1011.0
20210224142913 45 126 0.0 4.0 0.00 0.00 0.00 58 1011.0
20210224142351 44 193 1.0 8.0 0.00 0.00 0.00 59 1011.0
20210224141858 44 155 1.0 8.0 0.00 0.00 0.00 60 1011.1
20210224141356 43 197 2.0 8.0 0.00 0.00 0.00 61 1011.1
20210224140850 43 184 1.0 5.0 0.00 0.00 0.00 62 1011.1
20210224140400 42 146 1.0 6.0 0.00 0.00 0.00 63 1011.4
20210224135852 42 119 1.0 6.0 0.00 0.00 0.00 63 1011.4
20210224135405 42 159 0.0 4.0 0.00 0.00 0.00 64 1011.4
20210224134856 41 174 0.0 5.0 0.00 0.00 0.00 64 1011.5
20210224134353 41 163 1.0 5.0 0.00 0.00 0.00 65 1011.5
20210224133904 41 169 1.0 3.0 0.00 0.00 0.00 66 1011.5
20210224133400 40 179 0.0 3.0 0.00 0.00 0.00 67 1011.6
20210224133026 40 173 0.0 3.0 0.00 0.00 0.00 68 1011.6
20210224132438 39 173 0.0 3.0 0.00 0.00 0.00 68 1011.6
20210224131901 39 173 0.0 2.0 0.00 0.00 0.00 69 1011.6
20210224131404 39 172 0.0 2.0 0.00 0.00 0.00 69 1011.6
20210224130850 38 171 0.0 3.0 0.00 0.00 0.00 69 1011.6